CW1490 Weather Reports


Display with metric or nautical units.
time (UTC)temp
F
wind
direction
speed
MPH
gust
MPH
rain 1hr
in
rain 24hr
in
rain mn
in
humidity
%
barometer
mb
20141022044057 50 39 4.0 9.0 0.00 0.04 0.00 92 1016.3
20141022042555 50 19 2.0 9.0 0.00 0.04 0.00 92 1016.4
20141022041054 50 28 2.0 6.0 0.00 0.04 0.00 92 1016.3
20141022035552 50 359 2.0 6.0 0.00 0.04 0.04 92 1016.4
20141022034052 50 36 4.0 10.0 0.00 0.04 0.04 92 1016.4
20141022032552 50 28 3.0 10.0 0.00 0.04 0.04 92 1016.5
20141022031051 50 30 3.0 11.0 0.00 0.04 0.04 92 1016.5
20141022025551 50 53 5.0 10.0 0.00 0.04 0.04 92 1016.5
20141022024050 50 14 4.0 6.0 0.00 0.04 0.04 92 1016.6
20141022022547 50 61 0.0 5.0 0.00 0.04 0.04 92 1016.4
20141022021046 50 53 2.0 11.0 0.00 0.04 0.04 93 1016.3
20141022015545 50 47 3.0 13.0 0.00 0.04 0.04 93 1016.0
20141022014042 50 50 3.0 7.0 0.00 0.04 0.04 93 1015.8
20141022012742 50 41 4.0 9.0 0.00 0.04 0.04 93 1015.8
20141022011040 50 42 3.0 6.0 0.00 0.04 0.04 93 1015.6
20141022005540 50 45 3.0 6.0 0.00 0.04 0.04 93 1015.5
20141022004037 50 46 4.0 9.0 0.00 0.04 0.04 93 1015.3
20141022002536 51 34 3.0 6.0 0.00 0.04 0.04 93 1015.0
20141022001035 51 54 3.0 6.0 0.00 0.04 0.04 93 1015.0
20141021235535 51 39 3.0 6.0 0.00 0.04 0.04 93 1014.9
20141021234033 51 36 4.0 7.0 0.00 0.04 0.04 93 1014.7
20141021232533 51 57 4.0 7.0 0.00 0.04 0.04 93 1014.6
20141021231032 51 41 3.0 7.0 0.00 0.04 0.04 92 1014.5
20141021225531 51 49 4.0 9.0 0.00 0.04 0.04 92 1014.3
20141021224030 51 38 4.0 11.0 0.00 0.04 0.04 92 1014.2
20141021222530 51 35 2.0 6.0 0.00 0.04 0.04 92 1014.2
20141021221029 51 41 2.0 6.0 0.00 0.04 0.04 91 1014.2
20141021215529 51 43 2.0 4.0 0.00 0.04 0.04 91 1014.1
20141021214028 52 39 1.0 4.0 0.00 0.04 0.04 90 1014.1
20141021212528 52 7 2.0 7.0 0.00 0.04 0.04 90 1013.9
20141021211028 52 52 4.0 8.0 0.00 0.04 0.04 90 1013.7
20141021205527 52 44 4.0 8.0 0.00 0.04 0.04 90 1013.6
20141021204026 52 9 2.0 5.0 0.00 0.04 0.04 90 1013.6
20141021202526 52 28 4.0 9.0 0.00 0.04 0.04 90 1013.5
20141021201025 52 8 3.0 8.0 0.00 0.04 0.04 90 1013.4
20141021195525 53 58 4.0 9.0 0.00 0.04 0.04 90 1013.2
20141021194025 53 48 2.0 6.0 0.00 0.04 0.04 90 1013.3
20141021192524 53 45 3.0 12.0 0.00 0.04 0.04 89 1013.2
20141021191023 53 50 6.0 10.0 0.00 0.04 0.04 88 1013.3
20141021185523 53 29 4.0 10.0 0.00 0.04 0.04 89 1013.3
20141021184022 52 49 4.0 9.0 0.00 0.04 0.04 90 1013.2
20141021182520 52 52 1.0 7.0 0.00 0.04 0.04 91 1013.2
20141021181218 52 50 4.0 7.0 0.00 0.04 0.04 91 1013.4
20141021175517 51 68 1.0 6.0 0.00 0.04 0.04 91 1013.5
20141021174012 51 36 3.0 6.0 0.00 0.04 0.04 91 1013.6
20141021172511 51 56 4.0 9.0 0.00 0.04 0.04 91 1013.7
20141021171007 51 43 2.0 6.0 0.00 0.04 0.04 92 1013.9
20141021165505 50 54 2.0 5.0 0.00 0.04 0.04 93 1014.1
20141021164003 50 28 1.0 3.0 0.00 0.04 0.04 94 1014.3
20141021162459 49 12 1.0 3.0 0.00 0.04 0.04 94 1014.3
20141021160956 49 29 2.0 4.0 0.00 0.04 0.04 94 1014.4
20141021155455 49 55 2.0 5.0 0.00 0.04 0.04 95 1014.7
20141021153954 48 59 3.0 8.0 0.00 0.04 0.04 95 1014.6
20141021152451 48 24 1.0 5.0 0.00 0.04 0.04 95 1014.6
20141021150949 48 45 3.0 5.0 0.01 0.04 0.04 95 1014.7
20141021145447 47 95 0.0 0.0 0.02 0.04 0.04 96 1014.8
20141021143945 47 78 0.0 0.0 0.02 0.04 0.04 96 1014.9
20141021142442 47 78 0.0 0.0 0.02 0.04 0.04 95 1015.0
20141021140940 47 59 0.0 0.0 0.01 0.03 0.03 95 1015.0
20141021135439 46 55 0.0 0.0 0.00 0.02 0.02 95 1015.0
20141021133939 46 55 0.0 0.0 0.00 0.02 0.02 96 1014.9
20141021132438 46 55 0.0 2.0 0.00 0.02 0.02 96 1014.9
20141021130935 45 55 0.0 3.0 0.00 0.02 0.02 96 1014.8
20141021125435 45 45 2.0 4.0 0.00 0.02 0.02 96 1014.7
20141021123934 45 28 0.0 4.0 0.00 0.02 0.02 96 1014.7
20141021122434 45 39 3.0 5.0 0.00 0.02 0.02 96 1014.4
20141021120931 45 30 1.0 3.0 0.00 0.02 0.02 96 1014.4
20141021115429 44 355 0.0 0.0 0.00 0.02 0.02 96 1014.4
20141021113926 44 355 0.0 0.0 0.00 0.02 0.02 95 1014.3
20141021112422 44 355 0.0 0.0 0.00 0.02 0.02 95 1014.2
20141021110921 44 355 0.0 2.0 0.00 0.02 0.02 95 1014.0
20141021105521 44 21 1.0 3.0 0.00 0.02 0.02 95 1013.9
20141021103920 44 16 1.0 3.0 0.00 0.02 0.02 95 1013.7
20141021102417 44 24 1.0 3.0 0.00 0.02 0.02 95 1013.8
20141021100915 44 24 0.0 2.0 0.00 0.02 0.02 95 1013.9
20141021095415 44 24 0.0 0.0 0.00 0.02 0.02 95 1013.8
20141021093914 44 24 0.0 0.0 0.00 0.02 0.02 95 1013.9
20141021092414 44 24 0.0 0.0 0.00 0.02 0.02 95 1013.8
20141021090913 44 24 0.0 0.0 0.00 0.02 0.02 95 1013.9
20141021085412 45 20 0.0 0.0 0.00 0.02 0.02 95 1013.9
20141021083910 45 20 0.0 0.0 0.00 0.02 0.02 95 1014.0
20141021082410 45 20 0.0 3.0 0.01 0.02 0.02 94 1014.0
20141021080909 45 24 0.0 3.0 0.01 0.02 0.02 94 1014.0
20141021075408 45 306 0.0 0.0 0.01 0.02 0.02 94 1014.0
20141021073907 45 306 0.0 0.0 0.01 0.02 0.02 94 1014.2
20141021072405 45 292 0.0 0.0 0.00 0.01 0.01 93 1014.5
20141021070904 45 328 0.0 0.0 0.00 0.01 0.01 93 1014.3
20141021065403 45 328 0.0 0.0 0.00 0.01 0.01 93 1014.2
20141021063901 45 328 0.0 0.0 0.00 0.01 0.01 92 1014.5
20141021062401 45 328 0.0 0.0 0.00 0.01 0.01 92 1014.7
20141021060859 45 328 0.0 0.0 0.00 0.01 0.01 92 1014.6
20141021055359 45 328 0.0 0.0 0.00 0.01 0.01 91 1014.6
20141021053857 45 328 0.0 0.0 0.00 0.01 0.01 91 1014.6
20141021052357 45 328 0.0 0.0 0.00 0.01 0.01 91 1014.6
20141021050856 46 328 0.0 0.0 0.01 0.01 0.01 91 1014.6
20141021045355 46 236 0.0 0.0 0.01 0.01 0.01 90 1014.7